Regional Weather Roundup
Issued by NWS

Home | Current Version | Previous Version | Graphics & Text | Print | Product List | Glossary On
Versions: 1 2 3 4 5 6 7 8 9 10 11 12 13 14 15 16 17 18 19 20 21 22 23 24 25 26 27 28 29 30 31 32 33 34 35 36 37 38 39 40 41 42 43 44 45 46 47 48 49 50
000
ASUS43 KBIS 280010
RWRND

NORTH DAKOTA REGIONAL WEATHER ROUNDUP
NATIONAL WEATHER SERVICE BISMARCK ND
700 PM CDT WED AUG 27 2014

NOTE: "FAIR" INDICATES FEW OR NO CLOUDS BELOW 12,000 FEET WITH NO
SIGNIFICANT WEATHER AND/OR OBSTRUCTIONS TO VISIBILITY.


NDZ001>003-009>011-017-280100-
NORTHWEST NORTH DAKOTA

CITY           SKY/WX    TMP DP  RH WIND       PRES   REMARKS
WILLISTON      SUNNY     82  53  36 S9        29.96F
6HR MIN TEMP:  76; 6HR MAX TEMP:  84;

MINOT          SUNNY     76  54  46 S12       30.00F
MINOT AFB      SUNNY     76  57  51 S10       29.99F
$$

NDZ018>021-031>035-040>046-280100-
SOUTHWEST NORTH DAKOTA

CITY           SKY/WX    TMP DP  RH WIND       PRES   REMARKS
BISMARCK       MOSUNNY   76  62  62 S12       30.04F
6HR MIN TEMP:  72; 6HR MAX TEMP:  78;

DICKINSON      SUNNY     75  56  51 SE9       30.02F
GARRISON         N/A     75  59  57 S9        30.01F
6HR MIN TEMP:  69; 6HR MAX TEMP:  77;

HETTINGER ARPT PTSUNNY   72  61  68 SE10      30.06S
$$

NDZ004>008-012>016-024-026-027-054-280100-
NORTHEAST NORTH DAKOTA

CITY           SKY/WX    TMP DP  RH WIND       PRES   REMARKS
GRAND FORKS    MOSUNNY   73  58  59 S7        30.07F
GRND FRKS AFB  SUNNY     72  59  64 S10       30.08F
DEVILS LAKE    MOSUNNY   73  57  56 S10       30.05F
$$

NDZ022-023-025-028>030-036>039-047>053-280100-
SOUTHEAST NORTH DAKOTA

CITY           SKY/WX    TMP DP  RH WIND       PRES   REMARKS
FARGO          MOSUNNY   73  59  61 S9        30.08F
6HR MIN TEMP:  69; 6HR MAX TEMP:  75;

JAMESTOWN      MOSUNNY   73  61  65 SE8       30.06F
$$




USA.gov is the U.S. government's official web portal to all federal, state and local government web resources and services.